User: anonymous   Login
Location: Unspecified
(0.0000°N, 0.0000°E)
Time: 05:32:46
(UTC+02:00)
Language:

GPS 2-12 Rocket1 - Orbit

View from above orbital plane
View from above orbital plane
View from above satellite
View from above satellite

Ground track
Ground track

The orbit data is extracted from the following two-line orbital elements,

1 21891U 92009B   16175.34195898  .00000673  00000-0  32014-4 0  9998
2 21891  19.9955 162.9714 0047305 332.0370  27.7511 14.82670766312936
Epoch (UTC): 23 June 2016 08:12:25
Eccentricity: 0.0047305
inclination: 19.9955°
perigee height: 588 km
apogee height: 654 km
right ascension of ascending node: 162.9714°
argument of perigee: 332.0370°
revolutions per day: 14.82670766
mean anomaly at epoch: 27.7511°
orbit number at epoch: 31293

The dashed part of the orbit path shows where the satellite is in the earth's shadow,  

DLR